107P/Wilson-Harrington 

Epoch 2005 July 9.0 TT = JDT 2453560.5  

T 2005 July 10.72687 TT                                 Nakano

q   0.9929461            (2000.0)            P               Q

n   0.22992847     Peri.   91.28074     +0.99829522     -0.03233434

a   2.6388065      Node   270.57372     +0.01035480     +0.91743382

e   0.6237140      Incl.    2.78533     +0.05744063     +0.39657242

P   4.29

From 143 observations 1949-2002, mean residual 0".71.

Residuals in seconds of arc 

1949/                     791207 688 (0.7+  2.4-)   921221 801  0.2+  0.2-  

491119 675 (4.6-  1.7-)   791211 801  0.2-  1.6+    921221 801  0.4+  0.2-  

491119 675 (5.1-  2.5-)   791211 043  1.2+  1.3+    921224 801  0.2+  0.3-  

491119 675 (6.6-  2.4-)   791212 675  0.3-  1.2+    921224 801  0.3+  0.4-  

491119 675 (5.5-  2.4-)   791214 675  0.3+  1.0+    921230 711 (1.3+  6.9+) 

491121 675  0.6-  1.2-    791215 688 (1.2+  2.5-)   1993/                   

491121 675 (3.7-  0.6-)   791216 879  1.4-  0.3-    930120 711  0.3+  0.2+  

491121 675  1.6+  1.5-    791216 879  1.2+  0.5-    1996/                   

491121 675  0.8+  1.2+    791217 688  1.0+  1.9-    960423 381  0.7-  0.1+  

491122 675 (4.5-  1.2-)   791218 801  0.3-  0.2-    960423 381  0.8-  0.1+  

491125 675  1.3-  0.4+    791218 688 (1.1+  3.1-)   960423 381  0.9-  0.1+  

491125 675 (6.2-  0.7-)   791218 043  1.2-  0.4+    960424 381  1.0-  0.4+  

1979/                     791219 688 (0.7-  4.4-)   960424 381  1.2-  1.7+  

790615 413  0.4-  0.2+    1980/                     960425 381  0.7-  0.0   

790615 413(12.7+  1.5+)   800114 801  0.8+  1.8+    960425 381  0.9-  0.2+  

790811 413  0.0   1.5+    800211 801  1.3+  1.0+    960512 360  1.3-  0.6-  

790811 413 (3.0+  3.8-)   1988/                     960512 360  1.2-  0.8-  

790814 413 (1.2+  2.4+)   881220 675  0.1+  0.0     960512 360  0.6-  0.5-  

790814 413  0.9+  1.0-    881220 675  0.1+  0.2+    960516 695  0.4+  0.2-  

790815 413  0.5-  0.3+    881220 675  0.1+  0.2+    960516 695  0.4+  0.2-  

790815 413  0.4-  1.9-    881224 675  1.5-  1.0+    960516 695  0.4+  0.2-  

791115 675  1.1-  0.7-    881224 675  0.0   0.0     960522 360  0.7+  0.2-  

791115 675  1.2-  1.0+    881224 675  0.3+  0.1-    960522 360  1.1+  0.1-  

791115 675  0.7+  0.2+    1989/                     960528 413  1.0+  1.0-  

791116 675  0.0   1.0+    890206 413  0.7-  0.3+    960528 413  0.6+  0.7-  

791116 688 (1.5+  2.4-)   890206 413  1.0-  1.0-    960615 360  0.8+  0.8-  

791116 675  0.5+  0.7-    1992/                     960615 360  0.5+  0.9-  

791116 662  0.6+  0.8+    920611 711  0.3+  0.2-    960618 691  0.1-  0.2-  

791116 662  0.2-  1.1+    920629 801  0.4+  0.4+    960618 691  0.3+  0.5-  

791116 675 (3.0+  0.4+)   920629 801  0.4+  0.2+    960618 691  0.0   0.9-  

791116 801  1.2-  0.0     920726 801  0.1-  0.2+    960626 696  0.1-  0.5-  

791116 801 (3.9+  1.9+)   920726 801  0.6+  0.5+    960626 696  0.0   0.3-  

791117 801  0.9+  0.6-    920802 801  0.4+  0.8+    960626 696  0.5+  0.6-  

791117 801  0.7+  0.5-    920802 801  0.0   0.5+    960711 421  0.6+  1.0+  

791117 688  0.3-  1.6-    920808 688  0.6-  0.5+    960711 421  0.3-  1.2+  

791117 010  0.5-  0.6+    920808 688  0.7-  0.6+    960711 421  1.1-  1.5+  

791117 010  1.1+  0.4+    920824 801  0.5-  0.1-    960718 413  0.4+  0.7-  

791117 010 (3.4+  4.5+)   920824 801 (3.5+  1.1+)   960718 413  0.3+  0.6-  

791118 323  0.0   0.3-    920829 372 (2.5+  0.3+)   960817 568  0.4-  0.7-  

791118 330  0.4-  0.1+    920925 801  0.4+  0.0     960817 568  1.3+  0.7-  

791118 330  0.8+  0.3-    920925 801  0.1+  0.2+    1997/                   

791118 494  0.2-  0.4+    920930 801 (2.1+  0.9-)   970112 360  0.4-  0.5-  

791118 494  1.2-  1.2-    920930 801  0.4+  0.2+    970112 360  0.4-  0.2-  

791118 494  0.5+  0.9-    921017 711  0.3+  0.0     971230 568  0.4-  0.2+  

791119 372 (2.1-  1.6+)   921023 801  0.3-  0.0     2000/                   

791119 372  0.6-  0.1-    921023 801  0.2-  0.5+    000503 673  0.1-  0.7-  

791121 674  1.9-  0.4+    921025 360  0.0   0.1+    000503 673  0.4-  0.7-  

791122 688 (0.2+  2.4-)   921025 360  0.1-  0.3+    000503 673  0.0   0.4-  

791122 688  0.1+  0.7-    921025 360  0.1-  0.7+    2002/                   

791122 801 (4.2-  0.8+)   921028 801  0.6-  0.3+    020119 691  0.3+  0.5-  

791123 484 (2.4-  3.2-)   921028 801  0.5-  0.0     020119 691  0.3+  0.4-  

791123 484  1.5-  1.8-    921128 801  0.3+  0.3-    020119 691  0.4+  0.6-  

791123 372  0.7+  0.5-    921128 801  0.3+  0.2-    020119 867  0.6-  0.2-  

791123 372  0.5+  0.7-    921129 801  0.6+  0.3-    020119 867  0.8+  0.4-  

791123 494 (3.6-  1.4+)   921129 801  0.2+  0.1-    020119 867  0.6+  0.7-  

791123 494  1.7+  0.6+    921130 691  0.1+  0.3+    020211 704  0.2+  0.1-  

791124 675  0.5+  0.5+    921130 691  0.1+  0.0     020211 704  1.0-  0.7+  

791124 675  1.2+  0.7+    921130 691  0.1+  0.1-    020211 704  0.2-  1.2+  

791128 801 (0.3-  3.3-)   921203 658  1.2-  0.3-    020211 704  0.9+  0.2-  

791129 372  0.4+  0.9-    921203 658  1.2-  0.1-    020211 704  0.7+  0.0   

791129 372  0.1+  0.4+    921203 658  1.1-  0.1-    



NAKANO

         **** Don't distribute anyone except personal use only ****

                (C) Copyright 2002 OAA/ComputingSection

write mail from CFAD0::NAKANO on 2002-05-10 00:07:37(JST).





–ß‚è‚Ü‚·B